sat.trackr.live / text

‹ back to catalog

FLORIPASAT-1

NORAD 44885 · 2019-093G

PAYLOAD ACTIVE UNKNOWN

§ Identity

Operator
Country
BRAZ
Launch date
2019-12-20
Launch site
TAISC
Launch vehicle
Mass (kg)
RCS (m²)

External: N2YO · Heavens-Above · Gunter

§ Orbital elements

Epoch: 2026-05-25T04:50:43.774656Z

Period
95.77 min
Inclination
97.7912°
Eccentricity
0.0012657
Mean motion
15.03587670 rev/d
Perigee alt
547.1 km
Apogee alt
564.6 km
Semi-major
6,934.0 km
B*
4.3696e-4
RAAN
239.2690°
Arg perigee
144.3482°
Mean anomaly
215.8590°
Rev number
34,919

§ Raw data

FLORIPASAT-11 44885U 19093G   26145.20189554  .00005920  00000+0  43696-3 0  99992 44885  97.7912 239.2690 0012657 144.3482 215.8590 15.03587670349192

JSON: /api/v1/satellites/44885 · /tle

For live sub-satellite position, see the globe view (requires WebGL).

§ Visibility from observer

Set your observer location to see the next 7 days of passes ≥ 10°. The values pass through the URL so the page stays shareable.

No JS? Fill the form by hand. The geolocation button needs JavaScript.

§ Radio — SatNOGS DB

ModeDescriptionDownlinkUplink
GFSK Mode U/U GFSK2k4 Repeater 436.100 MHz 436.100 MHz
GFSK Mode V GFSK1k2 AX.25 Beacon 145.900 MHz

2 transmitters · refreshed weekly from db.satnogs.org